Theta_e
342 343 343 342 342 343 346 347 347 347 346 345 344 344 346 348 348 348 348 346 342 339 339 340 341 342 347 346 346 345 345 344 343 342 342 341 341 340 341 341 340 341 341 342 342 342 342 342 343 342 343 343 344 339 339 336 335 336 335 336 336 336
340 342 342 340 341 343 343 344 341 342 343 343 344 345 345 345 349 344 345 340 337 339 336 334 336 345 343 346 345 345 344 344 343 342 341 341 341 340 340 340 340 339 339 339 340 335 337 341 342 342 342 343 339 335 338 335 334 334 335 335 337 339
339 340 340 339 340 341 340 339 339 339 340 344 345 345 343 346 342 341 339 338 338 337 337 338 339 340 341 346 345 345 344 344 342 341 341 340 340 340 339 339 339 340 339 340 336 334 333 331 333 342 343 337 333 334 337 334 333 334 335 337 336 342
340 341 339 338 339 338 337 338 339 340 340 341 343 343 340 341 340 339 337 337 337 338 339 338 344 344 347 344 343 344 344 344 343 342 341 340 340 340 340 340 339 339 340 338 330 329 329 328 329 332 333 332 333 334 336 333 333 334 336 339 338 343
341 339 338 338 338 337 337 338 339 339 338 338 339 339 339 339 339 338 337 338 338 338 337 338 338 340 339 341 340 340 341 340 339 338 341 336 336 338 337 334 332 334 332 332 332 329 330 329 331 331 331 331 332 334 335 334 334 334 335 337 339 342
340 338 338 337 337 339 339 338 338 338 337 340 340 338 339 338 338 338 338 339 338 336 337 338 338 338 338 339 339 339 338 337 336 337 339 338 335 332 332 332 332 331 331 330 331 331 331 331 330 331 330 330 333 334 333 334 334 335 336 337 340 343
339 338 338 338 339 340 338 338 338 339 338 338 339 338 338 339 339 338 338 338 334 334 335 334 335 335 336 337 337 337 336 336 335 334 335 335 334 333 332 334 334 333 332 332 332 332 331 329 331 332 330 333 333 330 329 332 335 336 336 337 341 343
339 339 338 339 339 338 337 338 340 342 340 343 341 339 339 339 340 338 339 338 337 333 334 334 334 334 335 336 335 335 334 335 335 335 335 335 333 334 334 334 332 332 333 333 332 331 329 329 329 331 330 331 329 329 330 332 334 336 336 336 338 341
340 339 339 339 338 338 338 339 340 338 338 343 339 339 339 340 339 340 338 338 337 333 332 333 334 335 335 335 335 335 335 335 335 335 335 333 332 331 333 333 331 333 332 333 332 331 329 329 328 328 330 331 333 330 330 331 335 335 336 335 336 340
340 339 339 339 338 338 338 338 339 338 339 341 338 339 339 338 340 339 337 337 337 333 333 331 332 333 334 334 334 336 335 334 333 335 335 332 332 332 331 331 331 334 335 334 333 331 330 328 328 328 330 330 332 333 332 334 333 334 334 336 337 338
340 340 339 339 338 338 338 338 338 339 340 339 339 339 338 338 337 339 338 336 335 334 333 331 330 333 334 335 335 334 332 333 333 333 335 334 335 333 332 331 332 331 331 332 333 332 330 328 328 329 332 331 332 333 333 334 337 337 335 336 336 335
340 340 339 339 339 338 338 339 339 339 338 339 339 338 338 336 338 338 337 333 332 332 332 332 332 333 335 335 334 333 332 331 333 331 333 334 335 334 334 334 333 333 332 334 333 331 330 328 328 329 331 333 334 333 333 334 337 335 335 335 335 335
340 339 339 338 339 339 339 339 338 338 338 340 338 337 336 336 337 337 337 334 333 334 332 331 333 333 336 333 332 332 333 333 334 334 334 336 337 334 333 333 331 333 332 333 332 331 331 329 327 328 330 332 333 333 333 335 334 334 334 334 333 334
339 338 338 339 339 338 337 337 338 337 339 338 336 336 336 336 337 337 336 334 333 334 336 335 334 332 333 332 332 331 332 332 335 335 336 336 335 334 332 331 329 330 335 332 330 330 330 329 329 330 330 333 333 331 332 333 333 333 334 334 333 332
339 338 339 339 338 338 337 337 337 337 338 337 336 336 336 336 336 336 336 332 332 332 334 336 336 333 333 332 331 330 332 333 334 334 333 332 333 333 333 332 330 331 330 330 330 331 330 329 329 328 329 331 332 333 333 333 334 334 334 334 334 335
337 337 338 338 337 337 337 337 336 340 338 337 336 337 337 336 336 335 336 334 333 334 336 335 335 335 332 331 331 330 332 332 334 333 332 332 332 332 333 332 331 330 328 330 331 329 330 329 328 328 329 329 331 333 332 332 335 333 333 334 334 334
334 335 337 337 337 336 336 335 337 338 338 337 336 337 335 335 335 335 335 334 335 335 335 335 334 334 332 332 331 331 332 332 333 330 330 330 330 330 332 331 330 331 330 328 331 330 329 328 328 329 330 330 330 331 331 330 331 332 331 332 332 332
333 334 336 337 337 336 336 336 337 337 339 336 336 335 335 335 335 333 332 332 336 336 334 335 335 334 332 333 331 331 330 331 331 331 329 329 328 330 330 331 331 330 331 331 329 329 328 328 329 328 329 330 331 331 330 331 331 332 331 332 331 331
332 333 335 338 338 337 337 336 336 336 335 335 335 335 334 334 334 335 334 335 335 335 337 335 334 333 331 331 330 329 328 330 330 329 328 327 327 328 330 329 330 329 332 333 330 328 328 329 328 327 327 329 330 329 329 331 331 331 331 331 334 334
329 331 333 337 337 335 335 334 333 334 333 332 333 333 332 333 333 333 335 336 336 336 336 335 332 330 329 330 328 327 328 329 329 329 328 326 326 328 328 328 330 331 330 331 330 329 328 326 325 326 326 326 328 329 328 329 330 329 329 331 330 330
330 331 329 331 334 334 332 332 332 332 330 329 329 330 331 331 332 333 335 335 337 336 335 335 332 330 328 333 328 327 327 329 329 329 327 326 328 329 329 329 328 329 329 328 326 327 328 326 322 321 323 325 327 329 328 329 329 329 330 329 328 329
330 330 329 331 335 334 333 333 331 330 329 328 328 327 327 329 332 334 334 334 335 334 333 333 334 332 330 329 327 327 326 328 329 328 327 328 329 331 329 330 328 325 326 325 324 326 326 322 319 318 319 320 323 324 326 327 327 326 328 328 327 327
330 328 327 328 334 332 332 333 331 328 327 325 327 329 329 331 333 332 332 333 334 334 332 333 333 333 331 330 328 328 328 329 330 330 327 327 328 328 327 328 327 325 323 323 324 327 325 322 319 320 319 318 314 314 318 323 326 327 329 329 327 327
329 330 329 330 333 334 332 333 331 330 326 324 324 328 330 331 331 331 330 333 332 333 333 333 333 332 332 332 330 329 330 331 331 331 329 327 327 327 325 326 326 325 324 322 320 323 325 324 322 320 313 312 314 313 311 315 319 324 327 327 327 326
330 333 330 330 330 332 329 327 327 326 326 324 324 323 325 325 328 330 330 329 330 332 333 332 331 332 333 331 331 330 329 329 330 329 329 327 326 327 328 326 326 325 323 321 320 321 324 324 324 323 318 314 311 310 310 314 317 319 324 324 325 325
330 330 329 329 329 331 328 324 322 321 320 320 319 318 318 320 325 326 327 328 330 332 332 331 330 330 331 330 329 328 327 329 328 330 329 327 329 330 330 328 327 326 324 322 322 323 322 324 325 324 324 320 318 311 314 317 315 311 321 324 324 326
331 328 328 327 328 330 328 324 322 321 320 319 320 322 322 321 322 323 325 325 325 326 329 329 328 329 329 329 328 327 326 327 328 327 330 328 327 329 331 330 330 327 325 324 323 320 321 320 320 321 325 325 325 324 321 317 312 315 312 318 321 321
329 329 328 327 328 330 327 323 321 321 322 321 321 320 323 321 323 324 322 324 325 325 326 325 324 323 325 327 327 326 327 329 329 330 330 328 329 330 330 330 330 330 328 326 324 322 321 321 318 318 323 321 322 325 325 322 320 316 314 312 313 320
329 328 327 327 327 328 329 325 322 322 324 324 323 321 322 322 322 323 321 321 322 324 325 325 325 324 325 327 328 326 325 325 326 326 328 328 328 330 329 329 329 327 327 326 325 323 322 320 321 319 319 318 322 323 322 321 321 319 314 311 312 313
327 326 326 326 327 326 326 325 326 324 322 321 320 320 320 320 320 320 320 322 323 322 322 324 326 323 323 326 324 325 324 324 323 325 326 326 327 326 326 328 328 327 326 325 325 324 322 321 322 322 321 320 319 318 319 318 319 318 316 316 312 312
326 325 325 325 326 325 325 325 326 323 321 320 320 319 319 319 320 322 322 321 321 322 323 322 324 324 325 325 325 325 323 323 325 326 325 324 324 326 326 326 326 327 326 325 323 325 324 323 323 323 322 321 320 319 316 315 316 317 315 312 311 311
324 324 324 324 325 325 324 325 325 322 321 321 320 319 318 318 319 321 320 321 322 322 322 323 323 323 323 324 324 324 323 320 322 323 324 324 324 325 326 325 325 324 325 324 324 325 323 323 323 322 321 320 320 321 320 319 319 319 316 314 313 311
323 324 324 324 325 324 324 325 327 321 322 322 320 319 319 318 319 319 319 321 321 320 320 322 321 320 321 322 322 321 322 321 321 322 322 322 323 324 324 323 322 323 324 324 324 324 323 322 323 322 319 320 322 322 321 321 322 320 317 316 314 311
323 323 324 323 324 323 323 324 327 322 323 322 320 320 319 319 320 319 320 320 321 320 321 321 320 318 321 319 320 320 320 321 321 320 320 320 321 322 323 323 322 323 323 322 322 322 323 322 321 321 321 320 320 320 320 322 322 321 317 315 312 310
322 322 322 322 323 324 324 326 326 324 323 322 321 320 320 321 321 320 320 319 321 321 322 321 319 319 320 320 320 321 321 319 318 318 319 319 321 320 320 321 322 320 320 320 319 318 316 316 317 315 314 316 319 320 321 321 320 321 320 317 315 310
321 321 321 322 323 325 325 327 326 323 323 323 322 322 321 323 323 320 319 322 322 321 319 318 318 319 319 318 318 319 319 318 319 319 317 316 318 318 318 317 317 318 318 321 316 316 314 313 312 312 312 312 313 314 317 319 320 318 319 320 318 310
321 322 323 322 323 324 325 326 324 324 323 321 321 321 320 320 321 321 323 322 321 319 318 317 319 318 316 316 317 318 318 317 316 315 314 316 317 317 316 314 313 313 313 314 315 313 313 314 312 313 314 313 313 313 313 313 314 315 316 314 315 313
Wind_Speed
8 8 8 8 7 7 11 17 13 16 16 14 13 11 10 12 12 12 10 11 10 6 5 4 4 3 10 5 10 13 12 11 9 8 7 6 4 3 3 2 2 1 1 1 2 2 2 3 7 8 7 7 8 5 4 5 7 6 6 7 7 7
8 7 7 7 5 6 7 10 8 7 7 8 10 9 6 5 9 5 9 7 5 5 5 4 1 5 3 5 9 13 11 10 9 8 6 5 4 3 2 3 2 1 0 1 3 1 2 4 7 9 7 7 5 2 5 5 6 6 7 6 6 9
7 6 8 7 6 6 7 6 6 6 5 7 6 5 3 5 5 5 4 4 5 4 4 3 3 4 2 8 8 11 11 9 8 7 6 5 3 2 1 1 1 1 1 0 0 0 1 1 4 9 7 3 4 2 5 6 4 7 7 6 6 12
9 8 8 6 5 5 5 6 5 5 5 5 5 4 3 4 4 4 5 4 4 4 4 3 6 9 6 5 6 10 10 8 7 6 6 3 3 2 3 3 3 3 0 0 0 0 1 2 2 5 4 3 4 3 5 6 4 6 6 7 6 13
7 6 7 6 6 6 5 5 5 5 5 4 4 4 4 5 5 5 5 4 4 3 3 4 5 4 3 4 4 4 5 4 3 2 4 1 1 2 2 2 2 2 0 1 1 0 1 3 3 3 4 4 3 1 6 6 6 6 5 5 6 12
7 7 6 6 6 6 7 6 6 5 5 5 5 4 5 5 5 5 4 4 4 4 4 4 3 3 3 3 4 4 4 4 4 2 1 2 1 2 3 3 3 3 4 3 1 1 1 3 6 4 5 3 4 6 6 4 6 6 5 5 6 10
9 8 7 6 6 6 6 5 5 5 5 5 5 5 5 5 5 4 3 3 4 4 4 3 3 3 3 4 4 4 4 4 4 3 1 1 1 1 1 2 2 3 2 2 2 2 1 3 6 5 5 1 9 12 11 9 4 5 5 5 6 11
8 9 7 7 7 6 5 6 5 5 5 5 6 5 5 5 5 5 3 3 3 4 3 4 4 3 3 3 3 3 4 4 4 3 2 2 1 1 0 0 2 3 3 2 3 3 4 3 0 5 3 10 8 9 7 4 4 2 4 5 4 8
9 10 8 8 7 6 6 6 5 4 5 6 6 5 5 5 5 5 4 4 3 4 3 4 4 4 3 4 3 3 3 3 3 3 3 2 1 1 0 1 1 0 1 3 4 5 5 6 7 8 11 6 7 7 5 3 1 3 3 4 4 6
11 10 9 8 6 7 6 7 6 5 5 5 5 6 5 5 4 5 4 4 3 3 4 3 4 4 4 4 4 3 3 3 3 3 3 2 2 2 2 2 1 1 2 3 4 4 5 7 10 11 8 6 4 6 5 4 2 5 4 4 4 4
10 8 7 7 6 6 7 6 6 5 5 6 6 6 5 4 5 5 4 4 4 3 3 2 2 3 3 4 4 3 2 2 3 3 3 2 3 2 2 2 1 2 2 3 3 5 6 8 13 9 6 6 7 6 3 3 1 3 4 4 4 3
9 8 8 7 6 7 7 7 6 6 6 6 6 5 5 5 5 5 5 4 3 4 2 2 2 2 3 3 3 3 2 1 2 3 2 2 4 2 3 1 2 2 1 1 4 5 7 8 9 8 5 3 3 6 4 1 3 3 4 4 4 3
9 8 8 8 7 7 7 8 7 6 6 6 6 5 5 5 5 5 5 5 4 3 3 2 1 2 3 3 3 3 3 2 2 3 2 2 4 3 2 2 2 2 2 3 4 5 6 7 7 5 4 4 5 5 1 3 4 4 4 4 4 4
9 9 8 7 7 7 7 7 7 6 6 6 5 6 5 5 5 5 4 6 6 3 4 2 2 2 2 3 3 2 3 2 3 3 3 3 4 3 3 2 2 3 4 4 5 6 7 8 6 4 5 5 5 5 5 3 1 1 2 4 4 4
9 8 9 8 8 8 7 7 7 7 6 6 6 6 5 5 5 4 5 4 3 3 3 3 3 4 1 2 2 1 0 1 1 2 2 2 4 3 4 4 2 3 4 5 5 6 7 6 6 6 5 4 5 3 4 5 2 2 3 4 4 3
9 8 8 8 7 7 7 7 7 7 6 6 6 5 5 6 4 2 4 3 2 2 2 3 3 3 3 2 1 1 1 1 1 3 2 1 2 3 4 4 3 3 4 5 6 6 6 7 6 6 5 5 5 4 4 4 3 3 2 4 4 3
8 8 8 7 8 7 7 6 7 8 6 6 5 6 6 5 6 4 4 2 2 3 5 4 4 3 5 3 3 2 1 1 1 2 2 1 2 2 3 3 2 2 3 5 6 6 6 6 6 6 5 5 3 5 5 5 4 5 6 3 3 3
7 5 4 7 7 7 6 6 7 6 5 6 5 5 6 5 6 6 6 5 4 3 3 3 3 4 4 4 3 4 2 1 2 3 2 2 1 1 2 3 3 1 3 4 5 7 6 5 6 6 6 6 5 6 4 3 3 4 5 2 1 2
5 4 2 7 6 5 7 6 6 5 6 6 6 6 6 6 7 7 7 7 6 5 4 4 4 4 5 4 3 2 2 1 2 2 2 2 2 1 1 2 4 2 3 5 5 5 6 5 6 6 6 5 4 5 3 3 3 3 2 1 2 3
5 3 6 4 7 6 6 7 7 6 6 5 6 6 6 6 6 7 6 6 5 4 4 4 5 5 4 4 3 2 2 2 2 2 1 2 1 2 2 2 4 4 6 5 4 5 6 7 6 7 6 4 4 6 5 4 4 3 2 2 2 2
4 6 2 3 6 6 6 6 5 6 6 5 6 6 5 4 5 6 6 6 5 5 4 5 5 4 4 4 3 2 1 1 2 2 3 1 1 2 2 2 2 3 6 5 2 2 5 7 7 5 5 5 5 6 6 4 3 1 3 3 1 3
5 4 5 5 6 5 6 7 7 7 5 5 5 7 6 6 5 5 5 5 4 5 4 4 5 4 3 4 4 3 1 1 3 3 3 1 1 2 2 2 3 3 1 3 2 3 5 3 3 4 6 4 6 5 2 2 3 1 2 4 2 1
4 4 6 10 4 6 6 7 6 6 7 4 3 6 6 6 6 7 5 5 5 5 5 4 4 5 4 3 4 4 3 3 3 3 3 2 2 3 3 4 3 4 3 1 2 1 0 1 4 4 3 5 4 4 1 4 3 3 3 1 0 0
7 3 7 9 4 6 4 3 4 6 5 6 6 6 6 6 6 7 5 5 5 7 6 6 5 6 4 4 4 4 3 4 4 4 5 3 3 3 3 3 4 3 4 4 2 1 0 0 4 7 3 2 3 5 4 2 0 2 3 2 1 0
10 9 8 3 4 7 8 7 8 8 8 8 6 7 6 5 5 6 5 4 5 6 7 6 5 4 5 6 4 3 3 4 4 3 4 4 3 3 4 3 3 3 3 4 3 2 0 1 3 2 5 4 3 1 2 4 5 3 3 2 1 1
8 4 5 3 5 7 7 9 8 8 8 7 6 6 6 7 7 7 6 4 4 6 5 5 5 4 4 4 4 4 4 4 4 5 4 4 4 3 4 4 4 3 3 2 4 4 2 1 3 1 0 2 3 4 7 7 4 1 2 1 2 2
6 4 2 3 3 7 7 7 9 8 8 8 7 4 4 5 6 5 5 4 5 6 8 7 5 4 4 4 4 4 3 3 3 4 3 3 4 5 5 4 4 4 3 3 3 4 6 3 2 1 0 0 2 1 6 6 4 7 3 2 2 1
7 6 4 4 4 5 8 7 8 8 7 7 7 6 6 6 6 6 6 5 5 5 6 6 6 5 4 4 5 5 5 5 4 4 4 5 4 4 4 3 5 3 4 4 4 6 4 5 5 2 0 1 2 4 4 4 7 6 7 6 0 2
7 7 5 4 6 5 7 8 8 7 6 5 7 7 6 6 7 6 6 4 5 4 4 4 4 4 3 3 2 2 4 4 3 4 4 5 3 3 4 6 5 5 5 4 3 3 5 5 5 4 3 1 4 5 7 5 4 7 6 6 2 2
8 7 6 5 6 6 5 3 6 8 9 7 7 6 6 7 6 6 5 4 5 6 6 5 5 3 4 4 4 4 5 4 4 5 4 5 4 3 3 4 4 4 4 4 3 4 5 5 4 4 4 4 3 4 6 7 5 5 3 4 9 5
8 7 7 7 6 6 4 3 7 10 10 9 8 8 7 6 6 4 6 6 5 6 5 5 5 5 5 5 4 3 4 4 4 4 5 4 4 4 3 3 3 4 4 5 4 4 4 4 5 5 4 5 6 6 6 5 8 5 4 5 6 4
7 8 7 6 6 6 4 2 5 9 10 9 9 8 8 7 6 6 6 6 6 6 5 5 4 4 4 5 5 5 4 5 5 4 4 3 3 4 3 3 3 3 3 3 3 3 3 5 6 6 4 4 5 4 5 8 8 7 8 8 8 7
10 10 10 8 9 8 6 4 5 8 9 9 9 9 7 6 5 7 6 6 7 7 5 5 4 5 4 6 6 6 5 6 5 5 4 3 4 4 4 3 3 3 4 4 4 4 5 4 5 5 6 4 5 4 5 5 6 8 7 6 7 8
13 10 8 7 7 6 4 3 4 7 9 9 8 8 7 6 5 6 6 7 7 7 6 6 5 4 5 6 5 5 4 5 4 4 4 4 4 4 3 4 4 4 4 2 3 3 3 3 3 3 4 5 3 4 4 5 5 8 8 7 6 7
3 1 1 4 5 6 4 4 3 6 8 8 8 7 7 6 6 6 5 6 6 6 7 6 7 6 6 5 5 5 5 5 5 4 4 5 6 6 4 4 3 3 3 3 4 4 3 4 3 3 3 3 4 5 6 5 5 6 8 7 7 7
1 2 3 3 4 5 5 4 4 7 8 9 7 7 6 5 5 6 5 6 6 7 7 7 6 6 5 5 4 5 5 5 2 3 4 5 5 5 5 5 3 3 4 2 5 5 4 6 6 6 5 4 6 3 4 5 5 5 6 6 5 5
3 3 3 2 3 3 3 2 4 5 6 7 8 7 7 6 6 5 7 7 7 7 7 7 6 6 5 5 4 4 4 3 4 4 5 5 5 5 5 5 4 4 3 3 4 4 4 5 4 5 6 6 6 5 3 3 4 5 6 4 4 4
Wind_Direction
140 147 132 119 108 111 123 119 119 123 129 136 137 140 138 130 131 134 130 124 111 105 100 115 110 138 131 128 124 119 118 123 126 133 133 130 139 142 135 128 103 96 45 333 308 300 268 268 279 287 301 318 318 335 35 80 106 112 111 116 120 122
143 136 122 113 109 110 116 116 117 120 122 129 137 144 137 133 127 117 117 107 104 108 97 98 116 105 77 124 119 117 121 124 130 132 132 134 142 149 156 130 130 153 46 6 334 358 340 286 277 282 293 309 313 332 57 101 115 118 114 118 122 128
136 135 121 114 121 118 116 108 109 116 120 131 139 139 151 133 110 112 101 103 96 98 109 112 114 106 104 122 120 120 121 125 131 134 137 150 153 176 197 216 194 201 223 301 166 224 259 268 259 273 280 301 298 318 88 116 122 119 120 121 125 133
153 143 126 128 123 115 117 120 126 126 130 136 134 151 143 113 107 90 90 86 92 101 96 129 136 127 109 118 124 120 124 126 137 146 154 152 179 221 242 264 251 253 241 126 118 243 265 272 237 258 271 262 283 307 90 118 120 109 114 126 131 137
137 128 127 134 135 131 126 125 129 126 135 127 130 120 97 91 90 89 89 92 98 95 86 79 72 83 101 120 110 107 109 108 100 125 154 118 260 280 267 307 340 357 23 252 296 298 245 276 260 227 249 245 261 1 104 117 115 114 116 121 135 139
135 137 143 146 139 138 140 141 135 136 132 132 126 105 82 86 87 85 88 92 91 102 89 84 90 100 74 89 90 92 78 75 58 39 36 24 10 31 1 345 339 9 0 9 335 267 248 243 244 210 221 233 222 59 56 50 105 112 119 120 126 129
150 146 148 143 140 144 148 136 125 135 134 122 106 96 91 90 96 100 96 106 111 102 101 94 103 100 91 83 96 100 113 112 116 102 59 70 16 6 43 320 333 331 328 318 330 315 285 284 233 192 204 221 51 57 36 349 345 107 123 129 130 133
148 147 152 155 145 145 134 123 130 144 120 132 111 99 102 102 111 116 123 123 112 107 125 128 124 100 109 95 102 121 128 131 129 142 160 119 175 261 145 258 358 338 317 318 327 344 344 322 311 187 98 65 90 95 130 179 261 130 117 120 118 130
151 153 153 154 149 142 128 119 129 127 122 138 102 109 122 136 132 137 141 129 132 118 118 120 132 141 134 117 131 132 135 142 152 162 141 179 187 214 169 173 101 306 317 332 358 351 344 345 351 64 88 91 98 131 156 153 146 129 106 106 126 131
157 153 152 151 148 139 130 128 133 126 129 117 111 124 141 151 145 142 144 136 125 130 134 136 136 148 142 148 141 150 136 142 150 149 145 182 191 185 159 126 163 91 21 359 7 7 7 3 17 78 90 100 127 141 164 159 137 131 127 133 131 115
151 145 142 145 142 129 126 130 129 131 128 127 137 144 156 147 145 144 136 124 121 126 123 125 157 154 153 146 137 112 89 125 130 133 147 177 153 185 114 120 120 75 37 1 27 24 29 41 75 98 120 159 153 148 125 78 53 121 135 120 93 93
143 139 144 147 137 133 133 135 132 133 132 138 145 150 158 152 156 134 132 136 133 131 136 170 214 170 157 136 113 118 157 185 168 158 167 177 140 116 119 160 132 128 131 40 46 52 48 80 90 101 116 125 92 75 55 88 55 80 86 80 87 89
143 147 149 149 143 138 133 134 134 135 139 147 147 148 155 151 146 139 138 134 154 150 155 178 231 150 145 116 133 161 169 200 178 167 177 177 128 121 113 99 59 34 68 56 72 63 68 76 98 118 128 111 62 77 56 30 43 78 111 126 120 106
155 154 147 142 133 134 136 134 136 142 147 149 157 152 165 150 148 149 144 140 154 158 158 197 138 105 95 118 133 156 153 156 158 148 137 112 125 137 129 97 60 49 56 59 57 70 82 80 90 95 80 91 97 128 115 74 25 82 97 121 124 122
157 147 140 139 137 138 139 143 145 147 150 158 163 158 154 137 143 163 140 158 150 158 161 158 128 142 114 113 96 87 46 137 107 107 103 128 123 112 112 94 80 74 82 74 72 74 89 95 98 93 89 87 81 60 88 116 149 162 100 108 108 111
142 132 135 137 138 140 142 145 142 145 154 165 161 153 133 142 129 131 149 165 142 157 151 144 146 138 117 98 101 90 78 87 99 93 100 99 120 137 104 101 91 111 95 79 92 82 92 96 93 92 94 92 112 123 97 52 54 73 89 88 92 108
131 116 146 136 135 137 148 147 141 150 157 158 137 123 121 129 127 142 90 42 192 160 157 152 162 122 128 135 113 117 162 136 94 101 87 78 75 84 115 112 108 123 119 116 105 103 97 101 100 90 90 93 75 78 73 98 64 40 13 19 84 91
103 107 116 138 138 148 139 135 137 148 140 134 141 149 141 141 148 151 152 170 194 189 164 154 143 129 123 140 140 150 163 180 129 115 111 103 88 59 68 122 126 145 125 115 106 108 107 108 102 96 91 91 84 75 82 80 78 106 138 169 126 112
76 46 172 132 137 126 127 126 125 124 133 159 153 163 156 160 158 146 165 172 165 169 160 148 128 115 122 122 126 139 163 164 115 111 118 110 108 85 84 84 119 105 68 87 114 111 118 114 104 91 78 72 84 92 89 80 96 82 58 351 150 150
39 38 306 115 127 132 121 129 138 145 138 153 161 153 157 157 142 134 150 153 159 146 152 140 111 119 130 137 134 145 157 129 118 101 102 130 142 135 166 145 130 118 97 78 80 112 111 108 90 94 99 82 80 88 59 37 59 67 55 42 34 41
154 113 85 213 139 136 134 136 142 156 160 166 159 152 145 137 137 137 144 153 150 127 123 112 124 126 132 144 129 139 115 140 134 103 118 173 166 151 189 146 106 104 117 113 79 112 130 121 113 83 83 95 78 74 87 98 85 21 77 67 27 61
118 159 142 258 148 144 156 161 163 173 157 157 135 116 117 115 124 133 135 146 135 123 125 124 129 132 137 131 139 137 167 237 146 128 149 179 242 156 185 120 120 76 63 131 137 172 172 104 45 125 128 109 97 75 27 82 129 80 45 42 13 49
99 158 135 266 198 163 172 174 162 167 149 143 112 128 122 123 119 119 123 125 128 131 129 135 134 134 140 149 150 148 174 201 168 143 149 200 175 168 180 152 145 135 112 74 100 107 176 130 135 118 115 103 136 128 43 6 356 69 59 38 324 81
149 183 206 213 168 178 144 114 106 112 113 120 134 122 111 115 111 111 117 129 126 139 149 154 154 152 150 156 165 186 177 165 172 160 164 174 147 162 135 121 120 128 138 134 144 133 333 117 131 132 92 136 156 115 108 123 120 352 73 10 315 13
160 182 210 171 131 115 109 98 96 93 95 88 80 94 111 108 122 133 135 139 154 140 152 146 149 158 153 156 166 169 155 157 160 140 150 147 147 169 163 152 140 138 151 152 148 134 343 74 103 81 139 109 64 72 146 146 113 348 15 349 342 9
151 167 181 149 117 113 115 116 111 109 105 100 103 113 125 137 143 142 155 171 143 152 146 133 149 160 155 153 171 173 168 166 153 157 162 167 159 145 147 150 167 156 137 164 143 117 117 17 67 73 105 157 162 163 143 172 133 146 332 337 342 28
127 140 130 95 93 111 115 116 120 125 128 133 139 158 152 139 130 136 122 115 126 113 129 140 155 168 173 172 173 170 165 180 184 174 168 153 173 173 166 171 161 146 167 161 125 119 144 148 65 14 223 99 123 146 143 143 120 130 104 322 318 19
136 146 149 133 107 115 123 128 128 131 138 141 142 143 128 129 123 119 112 111 100 104 116 134 137 131 126 130 141 164 171 196 189 197 162 177 193 168 169 166 171 164 164 179 157 142 144 151 149 196 128 90 36 79 105 105 138 142 137 136 0 342
142 144 147 142 127 124 132 141 141 135 125 142 127 124 125 121 118 120 117 124 100 91 84 87 112 120 115 104 86 73 55 65 158 173 157 171 166 152 147 153 165 150 168 186 165 138 136 164 151 162 142 44 68 82 77 64 104 123 132 122 90 190
156 148 152 155 147 142 125 146 130 133 136 136 125 120 115 120 121 130 129 116 110 102 96 68 54 97 122 109 95 70 67 55 67 101 99 93 104 115 116 127 142 143 142 143 140 149 152 163 158 143 156 143 113 106 85 72 61 88 86 106 148 174
169 156 167 165 154 140 138 172 139 139 139 136 130 125 118 122 130 114 120 127 117 115 99 95 78 75 91 89 78 80 77 52 58 79 97 90 98 113 118 126 129 119 125 132 138 137 146 149 140 143 158 150 150 148 150 137 148 185 157 136 126 144
173 168 172 163 143 131 122 138 140 143 139 140 135 133 135 146 147 136 135 133 126 112 113 96 87 67 53 70 74 73 77 66 48 39 59 124 117 103 106 112 118 124 119 113 114 121 143 140 145 157 163 158 151 143 122 135 161 160 140 150 144 151
180 179 177 167 157 152 151 169 160 152 142 136 133 136 139 147 149 136 141 130 127 130 121 101 89 90 63 64 86 80 68 64 46 36 38 93 117 104 105 87 77 91 114 133 139 138 143 154 156 150 166 171 160 143 142 152 138 140 146 144 150 145
182 181 171 160 149 145 150 183 171 160 139 132 135 135 142 147 152 149 148 147 140 145 137 132 122 101 98 96 81 94 90 75 64 51 52 67 99 105 88 93 99 106 113 119 109 122 134 163 167 163 144 143 152 131 141 155 149 141 146 142 152 155
165 128 102 144 140 144 166 212 186 158 135 130 135 137 147 152 150 149 150 147 138 138 123 120 117 119 108 95 96 81 86 87 83 65 51 66 82 84 84 71 67 73 76 96 98 96 90 107 112 104 99 129 138 129 143 164 141 131 147 161 163 161
72 124 133 142 162 156 186 202 177 148 137 132 133 136 139 136 140 140 143 119 120 119 120 120 118 108 108 113 105 101 102 109 86 50 76 86 86 92 89 81 65 69 75 63 79 71 76 89 99 101 100 102 96 112 146 160 160 151 159 170 163 153
136 152 160 151 168 166 204 158 173 137 132 129 134 137 139 127 122 115 105 111 116 120 117 116 116 115 118 117 113 112 105 87 98 114 96 88 91 87 85 83 86 75 68 51 72 65 54 69 82 85 74 83 105 106 100 97 90 105 118 116 132 133